QPF
0.00 0.00 0.00 0.00 0.01 0.04 0.09 0.12 0.14 0.13 0.11 0.10 0.10 0.10 0.07 0.05 0.05 0.01 0.00 0.01 0.01 0.01
0.01 0.01 0.02 0.03 0.04 0.04 0.09 0.14 0.16 0.12 0.07 0.06 0.04 0.02 0.01 0.01 0.01 0.02 0.01 0.00 0.00 0.00
0.00 0.00 0.01 0.02 0.03 0.03 0.03 0.04 0.06 0.06 0.03 0.02 0.01 0.01 0.01 0.00 0.00 0.00 0.01 0.01 0.01 0.01
0.02 0.03 0.03 0.04 0.04 0.03 0.02 0.01 0.01 0.02 0.01 0.01 0.00 0.00 0.00 0.00 0.00 0.00 0.00 0.00 0.00 0.00
0.01 0.00 0.01 0.00 0.01 0.00 0.00 0.00 0.00 0.00 0.00 0.00 0.00 0.00 0.00 0.00 0.00 0.00 0.00 0.00 0.00 0.00
0.00 0.00 0.00 0.00 0.00 0.00 0.00 0.00 0.00 0.00 0.00 0.00 0.00 0.00 0.00 0.00 0.00 0.00 0.00 0.00 0.00 0.00
0.00 0.00 0.00 0.00 0.00 0.00 0.00 0.00 0.00 0.00 0.00 0.00 0.00 0.00 0.00 0.00 0.00 0.00 0.00 0.00 0.00 0.00
0.00 0.00 0.00 0.00 0.00 0.00 0.00 0.00 0.00 0.00 0.00 0.00 0.00 0.00 0.00 0.00 0.00 0.00 0.00 0.00 0.00 0.00
0.00 0.00 0.00 0.00 0.00 0.00 0.00 0.00 0.00 0.00 0.00 0.00 0.00 0.00 0.00 0.00 0.00 0.00 0.00 0.00 0.00 0.00
0.00 0.00 0.00 0.00 0.00 0.00 0.00 0.00 0.00 0.00 0.00 0.00 0.00 0.00 0.00 0.00 0.00 0.00 0.00 0.00 0.00 0.00
0.00 0.00 0.00 0.00 0.00 0.00 0.00 0.00 0.00 0.00 0.00 0.00 0.00 0.00 0.00 0.00 0.00 0.00 0.00 0.00 0.00 0.00
0.00 0.00 0.00 0.00 0.00 0.00 0.00 0.00 0.00 0.00 0.00 0.00 0.00 0.00 0.00 0.00 0.00 0.00 0.00 0.00 0.00 0.00
0.00 0.00 0.00 0.00 0.00 0.00 0.00 0.00 0.00 0.00 0.00 0.00 0.00 0.00 0.00 0.00 0.00 0.00 0.00 0.00 0.00 0.00
0.00 0.00 0.00 0.00 0.00 0.00 0.00 0.00 0.00 0.00 0.00 0.00 0.00 0.00 0.00 0.00 0.00 0.00 0.00 0.00 0.00 0.00
MSLP
1007.85 1008.17 1008.28 1008.20 1008.30 1008.29 1008.14 1008.03 1007.89 1007.72 1008.09 1008.40 1008.93 1008.81 1009.22 1009.78 1009.94 1010.15 1010.24 1010.72 1010.83 1011.05
1008.61 1008.63 1008.75 1009.13 1009.14 1009.07 1008.78 1008.21 1008.27 1008.04 1008.30 1008.37 1008.33 1008.67 1008.79 1009.20 1009.55 1009.88 1010.18 1010.22 1010.32 1010.44
1009.79 1009.81 1009.96 1010.03 1010.33 1010.18 1009.81 1009.38 1009.24 1008.96 1008.95 1009.33 1008.49 1008.86 1009.26 1009.52 1009.91 1010.11 1010.48 1010.78 1010.68 1010.13
1010.89 1010.93 1010.93 1011.02 1011.21 1010.89 1010.58 1010.43 1010.17 1010.23 1010.32 1010.10 1010.11 1010.30 1010.23 1010.52 1010.66 1011.00 1011.42 1011.40 1011.21 1011.40
1012.19 1012.10 1011.95 1012.15 1012.08 1011.78 1011.46 1011.56 1011.56 1011.49 1011.49 1011.49 1011.54 1011.47 1011.40 1011.93 1011.90 1011.74 1011.86 1012.57 1011.85 1011.62
1013.45 1013.28 1013.18 1013.22 1012.87 1012.58 1012.53 1012.32 1012.17 1012.22 1012.52 1012.46 1012.71 1012.47 1012.43 1012.71 1012.88 1012.85 1013.11 1012.22 1012.74 1012.15
1014.30 1014.12 1013.96 1013.77 1013.08 1013.60 1013.60 1013.40 1013.13 1013.07 1013.39 1013.15 1013.27 1013.78 1013.42 1013.34 1013.77 1013.55 1012.72 1012.74 1013.42 1012.91
1014.78 1014.67 1014.49 1014.27 1014.33 1014.40 1014.42 1014.30 1014.20 1013.86 1014.18 1014.16 1014.08 1014.76 1013.86 1013.77 1014.20 1014.44 1014.64 1014.30 1013.43 1013.16
1015.31 1015.21 1015.17 1015.12 1015.22 1015.27 1015.11 1014.70 1014.76 1014.75 1014.84 1014.59 1014.84 1014.65 1014.53 1014.98 1014.80 1014.41 1014.18 1013.85 1013.74 1013.65
1015.71 1015.87 1015.87 1015.94 1015.86 1015.79 1015.69 1015.43 1015.39 1015.32 1015.13 1015.33 1015.42 1015.25 1014.98 1014.65 1014.50 1014.47 1014.23 1014.11 1014.05 1013.99
1016.04 1016.09 1015.92 1016.02 1016.10 1015.99 1015.89 1015.93 1015.85 1015.74 1015.63 1015.50 1015.40 1015.43 1015.19 1014.81 1014.49 1014.34 1014.21 1014.18 1014.06 1014.03
1016.45 1016.34 1016.31 1016.32 1016.43 1016.50 1016.47 1016.45 1016.36 1016.13 1015.99 1015.97 1015.78 1015.57 1015.40 1015.16 1014.79 1014.54 1014.50 1014.31 1014.15 1014.01
1016.75 1016.75 1016.74 1016.73 1016.74 1016.70 1016.68 1016.63 1016.44 1016.26 1016.14 1015.88 1015.80 1015.61 1015.45 1015.24 1015.02 1014.97 1014.85 1014.59 1014.28 1014.07
1016.98 1016.93 1016.99 1016.92 1016.80 1016.77 1016.63 1016.54 1016.45 1016.25 1015.98 1015.92 1015.86 1015.82 1015.71 1015.61 1015.34 1015.11 1015.11 1014.91 1014.56 1014.38
Thickness
5540 5543 5548 5554 5557 5565 5574 5585 5596 5605 5608 5613 5614 5619 5621 5618 5616 5618 5626 5623 5625 5623
5525 5529 5534 5535 5540 5546 5557 5571 5578 5589 5595 5601 5606 5608 5610 5611 5610 5610 5611 5615 5616 5615
5505 5509 5513 5518 5521 5527 5537 5548 5558 5571 5576 5584 5585 5595 5591 5594 5596 5597 5597 5595 5598 5604
5489 5493 5499 5504 5506 5513 5521 5529 5539 5546 5552 5561 5566 5569 5575 5576 5576 5576 5574 5575 5578 5579
5479 5482 5487 5489 5494 5500 5506 5511 5518 5525 5532 5539 5544 5548 5552 5551 5554 5557 5559 5554 5563 5566
5472 5474 5476 5477 5483 5488 5492 5500 5506 5510 5513 5520 5523 5529 5532 5534 5535 5539 5538 5547 5544 5550
5469 5471 5471 5474 5481 5479 5482 5488 5495 5501 5503 5509 5511 5509 5514 5517 5517 5521 5531 5532 5527 5533
5470 5470 5471 5472 5472 5473 5476 5479 5483 5489 5489 5492 5496 5493 5502 5506 5505 5505 5505 5507 5515 5519
5466 5468 5467 5467 5467 5467 5470 5476 5477 5480 5479 5483 5483 5487 5490 5487 5491 5497 5497 5499 5499 5500
5464 5462 5461 5461 5461 5462 5463 5467 5469 5471 5473 5473 5473 5476 5479 5482 5484 5486 5489 5490 5490 5490
5463 5461 5460 5459 5459 5459 5459 5459 5459 5460 5463 5465 5467 5468 5471 5475 5479 5480 5481 5480 5480 5479
5456 5457 5456 5455 5453 5453 5453 5453 5454 5456 5457 5457 5459 5461 5462 5463 5465 5467 5467 5468 5467 5466
5450 5449 5449 5449 5448 5447 5447 5447 5448 5449 5450 5452 5451 5452 5452 5452 5453 5450 5450 5450 5451 5452
5443 5442 5440 5440 5440 5440 5440 5440 5440 5440 5441 5441 5440 5439 5439 5438 5438 5438 5434 5433 5432 5429